TimeMST,TemperatureF,Dew PointF,Humidity,Sea Level PressureIn,VisibilityMPH,Wind Direction,Wind SpeedMPH,Gust SpeedMPH,PrecipitationIn,Events,Conditions,WindDirDegrees,DateUTC
12:56 AM,19.9,19.0,96,29.84,-9999.0,South,9.2,-,N/A,,Unknown,190,2012-12-14 07:56:00
1:56 AM,19.9,18.0,92,29.82,-9999.0,South,6.9,-,N/A,,Unknown,180,2012-12-14 08:56:00
2:56 AM,19.0,17.1,92,29.81,-9999.0,South,5.8,-,N/A,,Unknown,190,2012-12-14 09:56:00
3:56 AM,17.1,15.1,92,29.81,-9999.0,Calm,Calm,-,N/A,,Unknown,0,2012-12-14 10:56:00
4:56 AM,15.1,12.9,91,29.80,-9999.0,Calm,Calm,-,N/A,,Unknown,0,2012-12-14 11:56:00
5:56 AM,15.1,12.0,88,29.79,-9999.0,Calm,Calm,-,N/A,,Unknown,0,2012-12-14 12:56:00
6:56 AM,15.1,12.0,88,29.79,-9999.0,Calm,Calm,-,N/A,,Unknown,0,2012-12-14 13:56:00
7:56 AM,15.1,12.0,88,29.79,-9999.0,Calm,Calm,-,N/A,,Unknown,0,2012-12-14 14:56:00
8:56 AM,17.1,12.9,84,29.78,-9999.0,NW,4.6,-,N/A,,Unknown,310,2012-12-14 15:56:00
9:56 AM,26.1,21.9,84,29.75,-9999.0,Calm,Calm,-,N/A,,Unknown,0,2012-12-14 16:56:00
10:56 AM,30.0,27.0,88,29.72,-9999.0,Calm,Calm,-,N/A,,Unknown,0,2012-12-14 17:56:00
11:56 AM,33.1,30.9,92,29.68,-9999.0,SSE,3.5,-,N/A,,Unknown,150,2012-12-14 18:56:00
12:56 PM,36.0,30.9,82,29.65,-9999.0,Calm,Calm,-,N/A,,Unknown,0,2012-12-14 19:56:00
1:56 PM,41.0,28.0,60,29.61,-9999.0,NE,4.6,-,N/A,,Unknown,40,2012-12-14 20:56:00
2:56 PM,42.1,28.9,60,29.61,-9999.0,East,4.6,-,N/A,,Unknown,80,2012-12-14 21:56:00
3:56 PM,35.1,28.0,76,29.63,-9999.0,ENE,9.2,-,N/A,,Unknown,60,2012-12-14 22:56:00
4:56 PM,30.9,27.0,85,29.66,-9999.0,NE,8.1,-,N/A,,Unknown,50,2012-12-14 23:56:00
5:56 PM,30.0,26.1,85,29.67,-9999.0,NNE,4.6,-,N/A,,Unknown,20,2012-12-15 00:56:00
6:56 PM,30.9,27.0,85,29.66,-9999.0,NE,5.8,-,N/A,,Unknown,40,2012-12-15 01:56:00
7:56 PM,30.9,27.0,85,29.66,-9999.0,NNE,5.8,-,N/A,,Unknown,20,2012-12-15 02:56:00
8:56 PM,30.0,25.0,82,29.65,-9999.0,NNW,4.6,-,N/A,,Unknown,330,2012-12-15 03:56:00
9:56 PM,25.0,21.9,88,29.64,-9999.0,Calm,Calm,-,N/A,,Unknown,0,2012-12-15 04:56:00
10:56 PM,28.0,23.0,81,29.64,-9999.0,NNW,4.6,-,N/A,,Unknown,330,2012-12-15 05:56:00
11:56 PM,30.9,21.9,69,29.64,-9999.0,North,4.6,-,N/A,,Unknown,350,2012-12-15 06:56:00